TimeCST,TemperatureF,Dew PointF,Humidity,Sea Level PressureIn,VisibilityMPH,Wind Direction,Wind SpeedMPH,Gust SpeedMPH,PrecipitationIn,Events,Conditions,WindDirDegrees,DateUTC
12:53 AM,35.1,23.0,61,30.32,10.0,NNW,8.1,-,N/A,,Clear,340,2012-11-24 06:53:00
1:53 AM,34.0,21.9,61,30.32,10.0,NNW,8.1,-,N/A,,Clear,340,2012-11-24 07:53:00
2:53 AM,32.0,21.9,66,30.32,10.0,North,5.8,-,N/A,,Clear,350,2012-11-24 08:53:00
3:53 AM,30.0,21.0,69,30.32,10.0,NNW,4.6,-,N/A,,Clear,340,2012-11-24 09:53:00
4:53 AM,30.0,21.0,69,30.33,10.0,NNW,6.9,-,N/A,,Clear,330,2012-11-24 10:53:00
5:53 AM,28.9,21.0,72,30.34,10.0,North,8.1,-,N/A,,Clear,360,2012-11-24 11:53:00
6:53 AM,28.0,21.0,75,30.37,10.0,NNW,4.6,-,N/A,,Clear,330,2012-11-24 12:53:00
7:53 AM,30.9,21.0,67,30.38,10.0,NNW,4.6,-,N/A,,Clear,340,2012-11-24 13:53:00
8:53 AM,34.0,21.0,59,30.38,10.0,North,9.2,-,N/A,,Clear,360,2012-11-24 14:53:00
9:53 AM,36.0,21.9,57,30.38,10.0,North,6.9,-,N/A,,Clear,360,2012-11-24 15:53:00
10:53 AM,37.9,21.9,53,30.36,10.0,NNW,6.9,-,N/A,,Clear,340,2012-11-24 16:53:00
11:53 AM,39.9,21.0,47,30.32,10.0,NNW,10.4,-,N/A,,Partly Cloudy,330,2012-11-24 17:53:00
12:53 PM,41.0,19.9,43,30.30,10.0,NNW,6.9,-,N/A,,Clear,330,2012-11-24 18:53:00
1:53 PM,43.0,21.9,43,30.27,10.0,NNW,5.8,-,N/A,,Clear,340,2012-11-24 19:53:00
2:53 PM,43.0,21.0,42,30.25,10.0,NNW,5.8,-,N/A,,Clear,340,2012-11-24 20:53:00
3:53 PM,42.1,21.0,43,30.24,10.0,NNW,4.6,-,N/A,,Clear,340,2012-11-24 21:53:00
4:53 PM,39.9,21.9,49,30.23,10.0,Calm,Calm,-,N/A,,Clear,0,2012-11-24 22:53:00
5:53 PM,34.0,23.0,64,30.23,10.0,Calm,Calm,-,N/A,,Clear,0,2012-11-24 23:53:00
6:53 PM,28.0,24.1,85,30.22,10.0,Calm,Calm,-,N/A,,Clear,0,2012-11-25 00:53:00
7:53 PM,28.9,24.1,82,30.22,10.0,Calm,Calm,-,N/A,,Clear,0,2012-11-25 01:53:00
8:53 PM,28.0,24.1,85,30.21,10.0,Calm,Calm,-,N/A,,Clear,0,2012-11-25 02:53:00
9:53 PM,26.1,23.0,88,30.20,10.0,Calm,Calm,-,N/A,,Clear,0,2012-11-25 03:53:00
10:53 PM,24.1,21.9,91,30.18,10.0,Calm,Calm,-,N/A,,Clear,0,2012-11-25 04:53:00
11:53 PM,24.1,21.0,88,30.18,10.0,South,3.5,-,N/A,,Clear,190,2012-11-25 05:53:00